Wind_Speed
24 25 26 28 30 31 31 32 32 31 28 25 22 20 19 18 16 15 15 15 14 14 15 15 16 17 18 19 19 19 18 16 15 14 13 12 11 12 13 16 19 22 25 29 32 35 39 41 42 44 45 45 43 41 39 38 37 36 35 35 37 38 39 39 39 39 39 37 34 31 28 26 25 25 24 23 21 20 19 19 19 18 16 16 18 20
24 24 26 28 30 31 31 33 33 33 31 29 26 22 20 18 17 16 17 16 16 16 16 15 15 16 18 19 20 20 20 20 20 19 19 18 16 13 10 11 14 18 23 27 30 33 36 38 41 43 44 43 41 39 37 37 36 36 36 37 38 38 38 38 39 39 39 36 32 29 26 25 24 23 22 20 19 19 20 22 22 20 18 18 20 22
23 24 26 27 29 30 31 32 33 33 33 32 29 26 22 20 18 17 17 17 17 16 16 16 16 17 18 19 20 20 20 21 22 22 21 20 18 14 10 7 9 13 18 22 25 28 31 35 38 41 42 41 40 38 37 36 37 38 40 40 39 38 37 37 38 38 37 34 30 27 25 23 22 21 19 19 19 20 21 22 21 20 19 21 22 22
23 24 25 26 28 29 30 31 32 32 33 33 32 30 27 24 20 18 17 16 16 16 16 16 16 17 18 19 20 19 19 20 20 21 21 20 17 14 10 7 7 10 14 17 20 24 28 32 36 39 40 40 40 39 38 38 39 41 42 41 40 38 38 38 38 37 35 32 29 26 24 22 21 20 19 19 20 20 21 21 20 21 21 22 21 18
22 23 24 25 27 28 29 29 30 31 32 33 33 32 31 29 25 21 17 16 15 15 15 16 16 17 18 19 19 19 18 18 19 19 19 19 17 14 11 10 9 10 11 12 15 19 24 30 34 37 39 41 42 42 42 42 43 44 43 41 39 38 38 38 37 36 34 31 28 26 24 24 23 22 22 21 21 20 19 20 21 22 22 20 17 13
21 22 23 24 26 27 27 28 29 30 31 32 33 33 32 31 29 25 21 17 15 15 15 15 15 16 16 17 18 18 18 18 17 17 17 17 16 15 13 12 11 11 10 9 11 15 20 26 31 35 39 43 46 47 47 46 45 44 42 39 38 38 38 38 37 35 33 30 28 27 26 26 25 25 24 22 21 20 20 22 23 23 20 16 11 6
19 20 21 22 24 25 26 27 28 29 31 32 33 32 32 32 31 29 26 22 18 16 15 15 14 14 15 16 16 17 18 18 18 17 16 15 15 14 12 11 10 10 10 10 11 13 16 20 26 31 36 42 47 49 48 45 42 40 39 38 37 37 37 37 36 34 31 29 28 27 27 27 26 25 23 22 21 21 23 25 23 20 14 9 4 0
18 18 19 21 22 23 25 26 27 28 30 32 33 33 32 32 31 31 29 27 23 20 17 15 14 14 14 14 14 16 17 18 18 18 17 16 15 15 14 13 12 10 10 11 13 14 16 18 22 27 32 37 41 43 42 40 38 37 36 37 37 37 37 37 35 33 30 28 27 27 27 26 25 24 23 22 22 23 24 23 18 12 6 2 2 2
17 18 19 19 21 23 25 25 26 27 29 31 32 33 33 32 31 31 30 30 28 25 22 19 16 15 14 14 14 14 15 17 18 18 18 17 17 17 17 17 17 17 16 16 16 17 18 19 23 26 29 31 33 35 35 35 35 35 36 37 38 38 38 38 36 33 29 27 27 27 26 25 25 24 25 25 24 22 21 17 12 6 2 1 2 1
17 18 19 19 20 22 24 25 26 27 28 29 30 31 31 31 31 30 30 30 30 29 26 23 20 18 17 15 15 15 15 15 16 16 17 18 18 18 19 21 22 24 25 25 24 23 22 23 24 26 27 26 27 28 30 32 33 35 36 38 38 39 39 39 36 31 27 26 26 26 25 25 25 26 27 27 25 23 21 18 14 10 7 4 2 2
17 18 19 20 20 21 23 24 25 26 27 28 28 29 29 30 30 29 29 29 29 28 27 25 22 20 20 19 18 17 16 15 15 14 15 16 17 19 21 23 26 28 31 32 31 30 29 28 27 27 27 26 25 26 28 31 33 35 36 38 39 39 39 38 34 29 26 25 24 24 24 24 25 26 26 25 23 22 23 21 19 17 14 10 7 5
20 20 20 20 21 21 22 23 24 25 26 28 29 29 29 29 28 27 27 27 27 26 25 24 23 21 19 20 19 18 17 16 15 14 14 15 16 19 21 25 28 30 32 33 33 33 33 33 33 32 32 32 32 32 34 35 37 38 39 39 39 39 37 35 31 27 25 24 24 24 23 23 24 24 22 20 19 20 21 22 22 20 18 14 10 9
23 23 22 22 22 22 23 24 25 26 27 29 29 28 26 26 25 25 25 25 25 24 23 23 22 21 19 19 19 19 18 17 16 15 14 16 17 18 21 24 28 31 33 34 34 35 35 36 37 38 39 40 41 42 43 44 45 45 44 42 40 38 36 32 29 26 24 24 24 24 24 23 23 21 19 17 16 16 18 21 21 21 20 16 12 11
25 24 24 23 23 23 23 24 25 27 27 27 27 26 24 23 23 23 24 24 23 23 22 22 22 21 21 19 19 19 19 18 16 14 15 17 18 19 21 24 27 30 32 34 35 35 36 38 39 41 43 45 47 48 49 49 49 48 45 41 39 36 34 30 28 26 25 25 25 25 25 24 21 18 17 16 15 16 17 19 20 21 21 17 14 12
26 25 25 25 24 24 23 24 24 25 25 25 25 25 24 23 22 22 23 23 23 23 23 23 23 23 23 20 20 20 20 18 16 16 17 20 21 21 22 25 27 29 31 33 34 35 36 38 40 41 42 44 47 49 50 48 46 43 40 37 35 34 31 29 27 26 26 26 26 26 26 23 20 16 15 15 15 16 18 19 21 23 22 18 15 13
27 26 25 25 25 24 23 23 23 23 23 24 25 25 25 24 23 22 22 23 23 23 23 24 25 25 25 22 20 20 20 20 18 18 20 23 24 23 24 27 29 30 31 32 33 33 33 34 35 36 36 38 41 43 43 40 38 36 34 32 31 30 29 28 27 27 27 27 26 25 23 20 18 16 15 15 16 17 19 21 24 25 23 19 15 14
27 26 26 26 25 24 24 23 23 23 23 23 24 25 26 26 25 24 23 23 23 24 24 25 26 27 26 24 22 20 21 22 21 21 22 25 26 25 25 29 32 33 32 32 32 31 31 30 30 29 29 29 29 30 30 30 30 29 28 28 28 27 27 26 26 26 26 26 25 23 20 18 17 16 16 15 16 16 18 20 21 22 20 16 14 13
27 27 26 26 25 25 24 24 24 23 23 23 24 25 25 26 26 25 24 24 24 24 25 25 26 26 26 26 24 22 21 22 23 23 23 26 26 25 24 27 29 31 31 32 32 31 30 30 28 26 24 23 22 22 21 22 23 24 25 25 26 26 25 24 24 23 23 23 22 20 19 18 16 15 15 15 15 16 17 17 17 16 14 13 12 12
27 27 26 26 25 25 25 25 24 24 24 24 24 24 25 25 25 25 25 24 24 25 25 26 26 26 26 25 24 21 20 21 22 24 25 27 27 25 24 24 25 27 28 30 30 30 30 29 28 26 24 22 19 17 16 17 18 20 20 21 22 22 22 21 21 20 20 19 18 17 17 16 14 13 13 14 15 16 17 18 17 15 12 11 11 11
27 27 26 25 25 25 25 25 24 24 25 25 25 25 25 25 25 25 25 24 25 25 25 25 25 25 24 23 21 19 17 17 20 24 27 28 28 27 26 25 26 26 27 28 28 27 27 25 24 22 21 18 16 14 12 13 14 16 17 17 17 17 18 18 18 18 18 17 16 15 15 13 12 11 12 13 15 17 18 19 18 15 13 12 11 10
26 26 26 25 24 24 24 24 24 24 25 25 25 25 25 25 25 25 24 24 24 24 24 24 23 22 21 20 19 17 15 12 15 21 26 29 29 28 27 27 26 26 26 26 25 24 22 21 19 18 17 16 14 12 11 10 10 12 14 15 15 16 18 19 20 20 19 17 16 15 14 12 11 12 13 15 16 17 19 18 17 15 13 12 10 8
26 25 25 25 25 24 24 24 24 24 24 24 25 25 24 24 24 24 24 24 24 24 24 23 22 21 20 20 19 18 16 12 9 14 21 26 28 27 26 25 24 24 24 24 23 22 21 20 20 20 20 19 17 15 13 12 11 12 13 15 16 18 20 22 23 22 20 19 18 16 15 14 14 15 16 16 17 17 17 16 15 14 12 11 8 6
25 25 25 25 25 25 24 24 24 24 24 24 24 24 24 24 24 24 23 23 23 23 23 23 23 22 22 21 21 19 18 15 11 10 14 20 23 23 22 21 19 19 21 23 25 24 23 23 23 24 23 22 20 19 17 16 16 16 16 17 18 18 19 20 21 21 20 19 19 18 17 16 16 15 15 15 14 14 14 13 12 11 10 8 6 5
23 24 24 24 25 24 24 24 24 23 23 23 24 23 23 23 23 23 23 23 23 23 23 23 23 22 22 22 22 21 20 18 13 9 9 13 16 17 15 13 12 12 14 19 23 24 24 24 24 24 24 22 20 19 18 18 17 17 17 17 16 15 15 15 15 15 15 15 15 15 15 14 13 13 12 11 11 11 10 10 9 8 6 5 5 6
22 22 22 23 23 23 23 23 23 23 23 23 23 23 23 23 24 24 23 23 23 22 22 22 22 22 22 23 22 22 22 20 16 11 8 10 12 12 10 7 6 7 9 12 16 18 19 20 21 21 21 20 19 18 17 17 16 16 15 14 13 12 11 11 10 10 10 10 10 10 10 10 9 9 9 8 8 8 8 7 6 5 4 4 5 7
20 20 20 21 21 21 22 22 23 23 23 23 23 23 23 23 23 23 23 22 21 21 21 22 23 23 23 23 24 24 23 22 20 16 11 10 11 10 8 5 4 5 8 10 12 12 13 15 16 16 16 17 17 16 16 15 14 14 13 12 11 10 10 9 9 8 8 8 8 7 7 7 7 7 7 7 7 7 6 5 3 3 4 5 7 8
18 18 19 19 19 20 20 21 21 22 22 23 23 22 22 22 22 21 21 20 20 20 21 22 23 23 23 24 24 24 23 22 21 18 14 12 11 10 9 6 6 7 9 11 11 11 11 12 13 13 13 13 13 13 13 12 12 11 11 10 10 9 9 8 8 7 7 7 7 6 6 6 6 6 6 6 6 5 4 3 3 4 5 6 7 8
17 17 17 18 18 18 19 19 20 21 21 22 22 22 22 21 21 21 21 20 20 20 20 21 22 22 23 23 23 22 22 21 20 17 15 13 12 12 11 10 9 9 10 11 11 10 9 10 11 11 11 11 10 10 10 9 9 8 8 8 8 8 8 8 7 7 6 6 6 6 6 6 5 5 5 5 4 3 3 2 3 5 6 7 7 7
15 16 16 16 17 17 18 18 19 19 20 20 20 21 21 21 21 21 21 21 21 21 21 20 21 21 21 21 21 21 20 19 18 16 14 12 12 13 12 11 10 10 9 10 9 9 8 9 9 9 9 9 9 9 8 8 8 7 7 7 7 7 7 7 6 6 6 6 5 5 5 5 5 4 4 4 3 3 3 3 5 6 6 7 7 6
14 14 15 15 16 16 16 17 17 18 18 18 19 19 20 21 21 22 22 21 21 21 21 21 20 20 20 20 20 19 18 17 16 14 13 12 12 12 12 11 10 10 9 8 8 8 7 7 8 8 8 8 8 8 8 8 8 8 7 7 7 7 7 6 6 6 5 5 5 5 5 5 4 4 4 3 3 3 4 4 5 6 6 6 6 6
14 14 14 14 15 15 15 16 16 16 17 17 17 18 19 19 20 21 21 21 21 21 21 20 20 19 18 18 18 18 16 15 13 13 13 12 12 11 11 11 10 9 8 8 7 7 6 5 5 6 6 6 7 7 7 7 7 7 7 7 7 7 7 6 6 6 5 5 5 5 5 5 5 4 4 4 4 4 4 5 5 5 5 5 5 6
15 15 15 15 15 14 14 15 15 15 15 16 16 17 17 18 19 19 19 20 20 20 20 20 19 18 17 17 16 16 15 13 12 11 12 12 11 11 10 10 9 8 7 7 7 6 5 4 4 3 4 4 4 5 6 6 6 6 6 6 6 6 7 6 6 6 6 6 6 5 5 5 5 4 4 4 4 5 5 5 5 5 5 5 5 6
16 16 16 16 15 15 14 14 13 13 14 15 15 16 16 17 17 17 18 18 18 19 19 19 18 17 16 16 15 15 14 12 11 10 10 10 11 10 9 9 8 7 6 5 5 5 5 5 4 3 3 2 3 4 4 5 5 5 6 5 6 6 7 7 7 7 7 7 7 6 6 5 5 5 5 5 5 5 5 5 4 4 4 5 6 7
16 16 16 16 16 15 15 14 13 13 13 13 14 15 15 15 15 15 16 16 16 17 17 17 17 16 15 15 14 13 12 11 10 8 7 8 9 8 8 7 7 7 5 5 4 4 4 4 4 3 3 3 3 4 4 4 5 5 6 6 6 7 7 8 8 7 7 8 8 7 7 6 6 6 6 7 6 6 5 5 4 4 5 5 6 7
14 15 15 16 16 16 16 15 14 13 12 12 13 13 14 14 13 13 14 14 14 15 15 15 15 15 15 14 13 12 11 10 9 7 6 6 6 6 5 5 6 5 5 5 4 4 3 3 3 2 2 2 3 3 4 4 5 6 6 7 7 7 8 8 8 8 8 8 8 8 8 7 7 7 8 8 7 6 5 5 5 5 6 6 7 7
14 14 14 14 15 15 15 15 15 14 13 13 13 13 13 13 12 12 12 12 12 12 13 13 13 13 13 13 12 12 11 10 8 7 6 5 4 3 3 3 3 3 4 4 4 4 4 3 2 2 2 2 1 2 3 4 4 5 6 6 7 7 8 8 8 8 8 8 8 8 8 8 8 8 8 8 8 7 5 5 5 6 7 7 8 8
14 14 14 13 14 14 14 14 15 15 15 15 14 14 13 13 12 12 11 11 11 11 11 11 11 11 11 11 11 11 10 9 8 7 6 5 5 4 3 2 1 1 1 2 2 2 3 3 3 2 2 1 1 1 1 2 3 4 4 5 6 7 7 8 8 8 8 8 8 8 8 8 8 9 9 9 8 7 5 5 5 6 7 8 9 9
13 13 13 13 13 13 13 13 14 15 16 17 16 16 15 14 13 12 11 10 10 9 9 9 9 9 9 9 10 10 10 9 8 7 6 5 5 5 5 4 3 2 2 3 3 4 4 4 5 5 5 5 4 2 2 2 2 3 4 5 6 6 7 8 8 8 8 8 8 8 8 9 9 9 9 9 8 7 5 5 5 6 8 9 10 10
12 12 12 12 11 11 11 12 13 15 16 17 16 16 16 16 15 14 12 11 9 9 8 8 8 7 7 7 7 8 8 8 8 7 7 6 5 5 5 5 4 4 3 3 3 4 5 6 6 7 7 7 7 6 5 4 4 4 4 5 6 7 8 8 8 8 8 9 9 9 9 9 9 9 9 8 8 6 5 5 5 6 8 9 9 9
12 12 12 11 10 10 11 12 13 14 15 15 16 16 16 16 15 15 14 12 11 9 8 7 7 6 5 5 5 5 5 6 6 6 6 6 6 5 4 4 4 4 3 3 3 4 4 5 6 7 7 8 9 8 8 7 6 5 5 6 6 7 8 8 8 9 9 9 9 9 9 9 9 9 8 8 7 6 5 5 6 7 8 9 9 8
11 11 12 11 10 11 12 12 12 13 13 14 14 15 15 16 16 16 15 13 12 10 9 8 7 6 5 4 4 3 4 4 4 5 5 5 5 5 4 4 3 3 3 3 3 3 4 5 5 6 6 7 8 8 8 8 7 7 6 6 6 7 8 8 9 9 9 10 10 10 10 10 9 9 8 8 6 5 4 5 6 7 8 9 9 8
11 11 11 10 10 11 12 11 11 12 12 13 14 15 16 16 16 16 16 15 13 12 10 8 7 6 5 4 3 3 3 3 4 4 4 5 5 5 5 4 4 4 3 4 4 4 4 5 5 6 6 6 7 7 8 8 8 7 7 6 7 7 8 9 9 10 9 10 10 10 10 10 10 9 8 7 6 4 4 5 6 7 8 9 9 7
11 10 10 10 10 11 11 11 11 12 12 13 14 14 14 14 14 14 14 13 13 14 13 12 10 8 6 5 4 3 3 3 3 4 4 5 5 5 5 5 5 5 5 5 5 5 5 5 6 6 6 6 6 7 8 8 8 8 7 7 7 7 8 9 10 10 10 10 11 11 11 10 10 9 8 7 5 4 4 5 6 7 8 9 8 7
10 10 9 10 10 10 10 10 11 11 11 11 11 12 13 13 13 13 12 11 11 12 13 14 13 12 9 7 6 5 4 3 3 4 4 5 5 5 6 6 6 6 6 6 6 6 6 6 6 6 6 6 6 6 7 7 8 8 8 8 8 7 8 9 9 9 9 10 11 11 11 10 10 9 8 7 5 4 4 5 6 7 9 9 8 7
9 9 9 9 9 9 9 9 9 10 10 10 10 11 13 13 13 13 11 10 10 10 11 12 13 13 12 10 8 6 6 5 5 4 4 5 5 6 6 6 6 6 7 6 7 7 7 7 7 7 6 6 6 6 6 7 7 8 8 8 8 8 8 9 9 9 9 10 10 10 10 10 9 8 8 7 5 5 5 5 5 6 7 8 8 7
8 8 8 9 9 9 9 9 9 9 9 10 10 11 12 12 13 13 12 10 9 9 10 11 11 11 12 12 10 8 7 7 6 6 6 6 6 7 7 7 7 7 7 7 7 7 7 7 7 7 7 7 6 6 6 6 7 7 8 8 8 8 8 9 9 9 9 9 10 10 9 9 8 7 7 6 5 5 5 5 5 5 7 7 8 7
8 8 8 8 8 9 9 9 9 9 10 9 9 10 11 12 12 12 12 11 10 9 9 10 10 10 10 11 11 10 9 9 8 8 8 7 7 7 8 8 8 8 8 8 8 7 7 7 7 7 7 7 7 6 6 6 6 7 8 8 8 8 8 9 9 9 9 9 10 9 9 8 7 7 6 6 5 4 5 5 5 5 7 7 7 7
8 8 8 8 8 8 9 9 9 9 9 9 9 9 10 11 11 11 10 10 9 9 9 9 9 9 9 10 10 10 10 10 10 9 9 9 9 9 9 9 9 9 9 9 8 8 8 7 7 7 7 7 7 7 7 6 6 7 7 8 8 8 8 9 9 9 9 9 10 9 9 8 7 6 6 5 4 4 4 4 5 5 7 7 7 6
8 8 8 8 8 8 9 9 10 9 9 9 8 8 10 11 11 11 10 10 9 9 9 9 9 9 9 9 9 10 9 9 9 10 10 9 9 10 11 12 11 11 10 9 9 8 8 8 7 7 7 7 7 7 7 7 7 7 7 8 8 9 9 9 9 9 9 9 10 9 9 8 7 7 6 4 3 3 4 4 5 5 6 7 6 6
8 8 8 9 9 9 9 10 10 10 10 9 8 8 8 10 11 11 10 10 9 9 9 9 9 9 9 9 9 9 9 9 10 10 10 10 10 10 12 12 12 12 11 10 9 9 8 8 7 7 7 7 7 7 7 7 7 8 8 8 9 9 9 9 9 9 9 10 10 9 9 8 8 7 6 4 3 3 3 4 5 5 6 6 6 5
9 9 9 9 9 9 9 9 10 10 10 10 9 9 8 9 9 10 10 10 9 9 9 9 9 9 9 8 8 8 9 9 9 10 10 10 10 11 12 12 12 11 10 10 10 9 9 8 8 8 7 7 7 7 7 7 8 8 9 9 9 9 9 10 10 10 10 10 10 9 8 8 7 7 6 4 3 3 3 4 5 5 6 6 5 5
Wind_Direction
30 32 33 33 32 30 29 30 31 32 33 33 36 40 45 48 52 57 65 75 84 88 88 86 83 82 83 83 84 85 86 86 87 89 94 102 118 138 156 168 177 184 187 188 186 183 179 173 171 170 173 176 181 185 188 190 190 186 179 172 167 167 170 174 178 180 180 179 179 181 185 189 192 194 194 194 193 191 188 190 198 210 224 235 241 244
33 34 35 35 34 32 31 31 32 33 34 34 34 37 41 46 51 56 62 70 79 89 94 97 95 91 87 85 85 86 88 90 92 94 96 97 97 99 109 137 157 167 172 173 172 170 170 169 170 171 174 178 183 187 190 190 186 179 173 168 166 168 172 176 178 179 178 178 179 182 185 188 191 191 190 189 188 188 188 193 202 214 227 236 240 242
33 36 37 37 36 35 33 33 33 34 35 36 35 35 37 41 48 54 59 65 72 82 91 98 102 101 96 92 91 92 95 97 99 100 99 96 89 79 75 99 137 154 162 165 166 167 169 169 170 172 175 180 185 189 190 187 180 173 169 166 166 169 174 177 178 178 178 178 179 181 183 184 184 183 181 181 183 186 189 196 207 220 231 236 238 240
35 37 39 40 40 39 37 35 35 35 36 37 37 37 37 38 43 50 57 63 68 76 84 94 101 104 103 99 98 99 103 107 108 108 106 101 94 86 80 93 128 152 162 167 170 172 173 173 173 175 178 182 187 190 189 183 176 171 168 167 167 170 174 176 178 178 178 178 177 177 176 175 173 172 173 176 180 185 191 202 214 225 230 233 235 239
39 41 42 43 43 42 41 40 38 38 38 39 39 39 39 38 40 45 54 62 68 73 79 86 94 100 102 101 100 103 109 115 118 117 115 112 110 109 111 120 135 152 165 171 176 178 179 179 178 179 181 184 186 187 185 179 174 170 168 167 168 171 174 176 178 179 178 176 173 171 170 169 169 170 172 176 181 187 197 210 220 225 227 229 235 242
44 45 45 46 45 44 43 42 41 41 40 40 40 40 40 40 40 41 46 55 64 71 76 80 86 92 96 98 99 103 110 118 123 126 125 125 126 128 132 137 144 154 164 170 177 181 182 183 183 183 183 182 182 181 179 175 171 168 167 167 169 172 175 177 179 179 177 173 170 169 170 172 173 174 176 179 184 193 205 216 221 222 223 228 236 247
46 47 48 48 48 46 44 43 42 42 41 40 40 41 42 42 42 42 43 47 55 66 74 79 83 87 92 95 99 102 107 113 119 125 129 132 136 140 143 147 152 160 169 174 180 182 181 183 184 183 180 176 174 174 173 171 169 167 167 168 171 174 176 178 180 180 176 172 169 170 172 175 177 179 180 183 190 200 211 217 218 219 220 225 229 193
47 46 46 48 49 48 46 44 43 43 42 40 39 40 41 43 44 44 44 45 48 55 66 75 82 87 90 94 99 102 105 108 111 116 121 127 134 140 145 149 155 166 180 190 192 187 180 178 178 177 172 169 167 168 168 168 169 170 171 173 175 176 178 180 181 179 175 171 170 171 174 177 179 182 185 190 197 206 212 215 216 215 212 186 101 72
47 46 45 45 47 48 47 46 44 44 43 42 39 38 38 41 43 44 45 46 46 48 53 62 73 82 89 94 98 101 104 106 107 110 114 119 126 134 141 146 152 161 172 182 186 184 177 172 171 170 167 165 164 165 167 169 172 175 176 177 178 179 180 181 179 176 171 169 169 171 174 178 182 187 191 194 199 205 211 217 225 236 250 94 97 113
46 47 46 46 47 47 47 46 45 46 46 44 42 40 40 40 41 42 44 45 46 46 47 52 61 71 79 87 94 99 103 106 108 110 112 116 123 130 138 144 149 155 159 162 164 166 167 167 168 168 168 168 168 168 169 172 175 177 178 179 180 181 181 179 175 171 167 166 168 171 175 180 188 194 196 195 195 199 208 221 238 259 275 274 237 224
47 46 47 48 49 49 48 47 46 47 48 47 46 45 44 43 42 42 43 44 45 46 47 49 53 61 70 78 85 93 99 105 109 111 112 116 122 129 136 141 147 152 154 155 155 156 158 161 164 167 170 173 175 175 175 175 176 177 178 179 180 181 179 175 170 166 164 165 167 172 177 184 193 198 197 193 190 194 206 219 234 251 265 267 257 247
49 47 46 46 47 47 48 47 46 46 47 48 47 45 45 45 44 45 46 46 47 48 49 50 52 55 63 72 80 88 93 101 106 109 113 116 121 127 134 141 146 150 152 154 154 154 155 157 159 163 167 172 176 178 179 179 179 179 178 179 179 178 174 170 166 164 164 166 170 175 181 189 195 197 195 191 190 196 207 219 231 244 259 263 259 255
48 47 46 45 45 45 45 45 45 46 47 48 47 45 45 46 47 49 50 51 50 50 51 53 55 57 60 68 77 85 90 95 101 108 114 116 118 123 132 139 143 147 150 152 152 153 154 156 157 160 163 167 170 173 174 176 178 179 179 177 175 173 170 167 165 166 167 170 175 180 185 190 193 195 194 193 196 205 216 224 233 244 256 259 256 254
48 47 46 45 44 44 45 46 47 48 49 50 51 50 50 49 50 53 55 56 56 55 56 58 60 61 62 67 73 80 87 93 99 107 113 116 118 122 130 137 141 144 148 149 148 148 152 154 155 156 158 161 164 167 168 170 171 172 172 170 168 167 166 166 167 168 171 176 180 184 187 187 188 190 196 201 208 216 224 229 236 244 252 252 250 252
48 48 48 47 45 45 46 48 50 51 52 54 56 57 57 56 55 56 59 62 62 61 62 63 64 64 65 69 73 78 84 90 94 101 108 113 118 123 130 136 140 144 146 145 142 142 146 149 149 149 150 154 157 161 163 164 164 163 161 160 161 163 165 167 168 171 175 180 185 189 188 184 181 183 194 206 215 222 227 231 236 242 245 243 244 249
48 48 49 48 47 46 48 49 51 52 53 55 58 61 62 61 59 59 60 63 64 65 67 68 69 69 70 70 72 77 84 88 92 98 105 109 115 123 129 135 139 141 142 138 134 133 135 136 136 137 139 143 149 155 160 161 160 156 154 155 158 162 165 168 170 174 179 184 187 188 185 180 177 180 192 204 215 224 230 233 235 237 237 237 239 246
47 48 49 48 48 47 47 48 50 52 53 55 58 61 63 64 63 62 61 62 63 64 66 69 72 73 73 72 72 75 82 89 93 96 101 103 109 117 125 129 130 131 132 128 123 121 121 121 121 122 127 135 144 153 159 161 159 156 154 157 160 164 167 170 174 179 184 185 184 181 178 177 180 188 198 208 219 230 238 238 236 235 235 236 239 245
47 47 47 48 48 47 46 47 48 50 53 55 57 60 64 66 67 66 65 64 63 63 65 67 71 73 74 73 74 76 80 91 96 97 98 100 104 110 116 120 121 121 120 118 117 117 118 119 120 124 131 142 153 160 164 166 165 162 161 162 164 165 167 171 176 182 185 182 177 174 177 181 189 200 212 221 231 242 250 253 251 248 244 243 243 243
47 47 46 47 47 46 45 45 46 48 51 55 57 60 62 65 67 68 68 67 67 66 67 69 70 71 72 72 72 73 79 92 100 102 102 103 105 108 111 112 113 114 116 117 119 121 123 126 129 134 141 147 153 158 163 166 166 164 164 165 167 168 168 172 178 183 184 179 175 176 181 187 198 213 227 236 243 249 256 262 265 264 258 251 244 240
49 48 48 47 47 46 45 45 45 47 50 53 56 58 60 62 65 66 68 69 70 71 71 70 70 69 68 67 65 65 71 89 103 109 109 110 112 114 115 115 115 116 118 121 123 125 126 127 129 133 138 140 142 145 149 154 157 159 159 162 166 170 174 180 186 189 187 182 181 184 189 196 209 226 239 245 248 252 257 261 264 263 256 249 242 237
51 50 48 47 46 46 46 45 45 47 48 51 53 55 56 59 61 64 66 68 70 71 72 72 71 69 66 63 60 58 61 75 101 114 116 116 116 118 119 120 120 120 121 124 126 127 128 129 131 134 138 142 144 145 147 152 159 163 166 170 176 183 188 192 197 198 195 189 188 193 198 208 222 236 243 246 248 251 255 258 258 254 248 242 236 233
52 51 49 48 48 47 47 46 46 46 47 49 50 52 53 55 58 61 63 65 67 70 71 72 72 71 69 66 64 64 65 61 84 115 121 118 117 118 123 124 125 127 130 133 136 138 141 143 146 149 152 154 157 159 162 168 174 179 182 185 189 192 195 197 200 201 197 190 190 195 205 216 227 236 240 243 246 249 251 251 248 244 239 234 230 233
52 51 50 48 48 48 47 47 46 46 47 48 49 50 51 54 57 60 62 64 66 69 71 72 72 71 69 67 67 68 71 70 79 107 121 116 113 115 123 125 130 135 141 147 150 153 155 156 156 156 157 158 160 164 168 173 178 182 185 188 191 192 193 194 196 195 191 186 185 191 202 214 223 230 235 238 242 244 244 241 238 235 231 227 229 245
50 50 49 48 48 48 48 48 47 47 47 47 48 48 49 51 54 58 61 64 66 68 69 70 70 69 68 67 67 68 71 75 79 92 118 120 116 114 116 120 129 139 146 153 155 156 158 158 158 158 156 156 157 160 164 168 172 175 178 181 184 186 187 187 187 186 183 179 179 184 194 206 216 223 228 231 234 234 233 231 228 225 223 228 245 261
49 49 49 49 49 49 49 49 48 48 47 47 47 48 48 49 51 53 56 60 64 68 69 70 70 69 68 67 67 67 69 74 76 81 98 118 119 114 108 109 122 134 139 150 153 152 150 150 152 154 156 157 158 159 161 163 166 169 172 175 178 180 182 183 182 180 177 173 171 175 186 197 206 212 216 219 221 222 223 222 220 222 232 252 265 270
53 52 51 50 50 49 49 49 48 48 48 48 48 47 48 49 50 51 53 58 64 68 71 71 71 70 69 68 67 67 68 70 72 76 84 102 111 110 103 96 101 116 126 138 141 139 136 138 143 148 153 158 161 162 163 164 166 168 171 174 176 178 180 180 179 174 169 164 163 167 176 186 195 201 204 208 211 213 215 218 227 249 268 273 275 274
55 54 53 51 50 49 48 48 48 48 48 48 48 48 49 50 51 51 53 55 59 64 68 70 70 69 68 67 67 67 68 69 70 72 78 86 93 95 92 87 93 108 119 128 130 130 130 134 140 145 149 154 157 160 163 165 168 171 173 174 175 176 176 176 173 168 162 158 159 164 173 182 189 195 198 202 205 208 212 227 258 275 278 277 277 277
56 55 54 52 50 49 48 48 47 47 48 48 48 49 50 51 51 51 50 49 50 55 61 66 68 68 67 67 68 69 70 70 71 72 74 77 82 84 85 86 94 107 116 122 126 129 131 136 140 143 146 148 152 155 158 163 167 171 173 174 174 173 173 171 169 166 162 161 164 169 176 183 187 190 193 196 200 207 221 252 272 276 276 276 278 282
57 56 54 53 51 50 49 47 47 47 47 47 48 49 50 51 51 50 50 48 48 49 53 58 62 65 67 68 69 70 70 72 73 75 74 74 77 80 82 85 92 101 111 117 121 124 128 135 140 144 146 149 152 155 159 163 167 170 172 172 172 173 173 173 172 170 170 171 174 178 180 181 183 184 187 192 202 220 246 264 269 271 273 276 281 290
57 57 56 54 53 51 50 48 47 46 46 46 46 47 48 50 51 52 51 50 49 49 50 53 56 60 63 65 67 68 68 70 74 76 76 74 75 78 79 81 86 94 102 108 112 114 120 133 143 147 150 154 157 160 163 166 169 172 174 175 177 178 180 182 183 183 185 188 189 188 186 182 179 180 185 196 214 238 256 265 268 270 273 280 288 296
53 55 56 56 54 52 51 49 48 47 46 45 44 45 46 47 49 51 51 51 51 51 51 53 55 56 57 61 66 68 67 68 74 79 78 75 76 79 78 79 83 90 97 98 96 95 101 121 138 149 156 160 163 165 167 170 172 175 179 183 186 189 194 196 198 201 205 207 207 202 194 186 184 187 195 210 228 247 259 266 269 273 279 288 296 301
40 43 47 50 52 53 52 51 50 48 47 45 44 44 44 45 46 48 50 51 51 51 52 53 55 55 55 57 62 66 67 71 77 83 82 79 80 83 82 83 85 90 97 97 94 89 87 101 121 142 157 163 169 174 176 178 180 183 189 195 201 206 209 212 216 220 224 225 222 214 203 197 197 203 214 227 240 252 262 269 274 279 287 297 304 305
29 30 32 36 41 46 50 52 52 51 48 45 44 43 44 44 44 45 46 48 49 51 51 52 54 54 54 55 58 62 66 71 78 85 86 85 86 88 89 91 93 95 99 102 102 102 100 107 119 138 156 175 186 192 194 195 197 200 205 212 219 224 226 228 230 234 239 240 236 226 216 210 211 219 229 239 247 255 263 273 281 289 296 304 308 309
24 23 22 23 26 31 36 42 48 51 50 47 44 43 43 43 43 43 43 44 46 48 51 51 52 53 54 54 55 58 63 67 72 77 84 96 96 93 97 101 103 104 104 102 102 104 105 110 121 133 151 181 198 206 209 212 215 218 221 226 232 236 237 238 240 242 245 249 246 238 228 220 221 229 239 246 252 258 266 276 290 301 307 312 312 310
22 20 18 16 16 18 21 24 29 36 41 43 43 42 43 44 44 43 43 42 43 44 47 48 50 52 53 53 53 55 58 60 63 65 69 92 100 100 107 111 113 111 106 102 98 95 93 97 105 120 135 160 188 205 210 215 221 225 230 233 237 241 243 245 246 248 249 251 249 244 237 230 228 234 242 249 254 259 266 280 295 308 314 315 315 311
20 17 15 12 10 10 11 12 14 16 21 26 31 34 38 42 45 46 45 43 42 42 43 44 45 47 49 51 52 54 55 56 57 59 57 55 57 72 106 115 116 112 105 98 91 82 75 71 76 87 102 119 146 181 202 211 219 226 234 237 240 243 246 249 251 252 252 249 246 243 241 236 234 237 243 249 253 258 266 280 298 309 314 315 314 312
19 15 11 9 7 5 5 6 6 6 6 8 13 20 26 33 40 45 47 46 44 42 42 41 41 42 43 45 48 52 52 53 54 55 51 41 34 32 38 40 47 55 60 51 46 44 34 23 15 10 359 359 47 108 189 213 222 230 239 243 246 248 251 253 255 256 253 250 246 243 242 239 238 241 246 249 252 255 262 277 295 306 311 312 312 311
19 15 10 8 5 4 3 2 1 359 358 359 4 9 13 18 25 33 41 46 47 45 43 41 40 40 41 40 41 42 44 47 48 48 46 43 39 34 31 25 21 13 350 337 333 332 329 330 328 324 320 313 310 305 291 264 252 251 253 253 254 255 255 257 258 257 255 250 247 245 243 242 242 244 247 250 252 255 264 276 290 301 307 308 309 309
20 15 10 7 5 4 3 0 357 355 355 358 1 4 6 7 10 14 21 30 37 41 42 41 40 40 39 39 37 36 36 39 40 41 41 41 40 40 41 36 30 23 11 346 333 328 324 321 318 314 310 306 303 298 292 283 272 264 261 260 259 259 259 258 258 257 255 251 248 245 244 243 243 244 247 251 254 261 273 283 291 298 304 306 306 307
19 14 9 7 6 4 1 357 355 354 356 358 360 0 1 1 1 2 4 8 15 21 27 30 33 35 39 39 35 31 28 29 30 30 31 32 33 34 37 39 36 31 26 11 354 341 332 326 321 315 310 305 301 296 291 287 280 272 268 266 265 264 261 259 258 257 256 253 248 245 244 243 242 242 244 247 253 261 272 281 289 294 299 300 300 299
16 12 8 7 4 360 355 355 356 358 359 359 359 359 357 355 354 354 354 356 359 3 6 11 16 19 20 27 28 23 16 12 13 14 14 16 16 17 19 20 19 16 12 2 351 339 332 331 326 321 314 306 301 296 290 286 281 277 269 265 263 263 263 261 260 259 258 255 252 248 245 242 240 239 241 244 247 253 263 275 284 289 293 294 294 292
13 10 8 6 3 360 357 358 359 359 359 359 358 356 353 351 349 348 347 347 348 351 354 1 5 8 6 3 4 6 2 358 355 355 355 355 356 357 358 357 355 351 344 339 333 329 323 322 321 319 316 312 307 302 295 287 283 280 273 265 263 264 265 264 262 260 259 258 256 253 247 241 236 235 237 240 241 246 262 274 280 284 287 289 291 290
9 7 6 4 2 360 358 358 358 358 357 356 354 351 348 346 344 344 343 342 341 341 342 343 347 352 355 354 350 347 346 344 343 343 343 342 342 342 341 341 340 336 332 328 327 324 316 311 310 311 311 313 313 308 300 294 288 282 277 270 267 265 263 263 262 261 260 260 259 255 249 242 237 234 235 235 236 244 261 272 277 281 283 285 287 289
4 1 1 1 359 357 356 356 356 354 352 349 346 342 341 339 339 340 340 338 336 335 334 335 336 338 339 341 341 339 329 323 325 330 334 335 334 332 330 330 328 326 323 321 321 320 315 311 309 307 309 313 315 313 306 300 293 286 279 275 272 265 257 258 260 261 260 259 257 254 249 243 239 236 235 235 237 245 256 266 274 278 280 281 281 280
356 354 353 353 352 351 350 348 347 346 343 339 336 335 334 333 334 335 335 333 330 328 327 327 328 330 331 330 331 332 327 319 316 317 321 323 324 323 320 320 319 318 316 315 314 313 314 315 313 309 308 310 312 312 310 303 297 289 281 278 274 268 260 259 257 255 254 254 252 249 244 239 235 232 233 238 243 246 251 259 268 275 278 277 274 272
347 346 345 343 342 341 339 337 336 335 332 330 329 328 328 328 329 329 329 327 324 321 320 319 321 324 326 325 323 323 323 320 316 314 314 315 315 312 308 307 307 309 309 308 307 307 307 309 309 308 307 308 308 307 304 300 295 289 281 278 274 269 264 259 254 249 246 245 243 239 235 231 227 225 229 235 242 246 248 255 263 269 274 274 271 267
337 336 336 334 332 330 329 328 328 327 325 323 321 320 321 322 323 323 322 321 320 318 317 315 314 315 317 317 318 318 318 317 315 314 313 316 314 307 300 297 296 297 298 299 299 300 301 302 304 306 306 306 303 300 295 292 288 283 278 275 272 265 255 252 249 245 240 236 232 228 223 216 216 219 224 228 236 243 250 257 263 267 269 270 270 267
327 326 324 323 323 323 322 321 322 321 320 316 313 312 313 315 316 317 316 314 313 313 313 313 311 309 309 310 312 313 313 313 314 314 312 316 316 310 304 300 297 294 292 290 291 292 294 295 298 303 305 303 298 295 293 289 284 277 272 270 265 256 245 244 242 239 233 227 221 215 207 202 204 211 215 220 228 240 252 260 265 267 267 269 270 266
319 317 317 316 317 318 318 318 318 319 318 312 307 305 307 309 311 312 310 308 306 306 306 306 305 304 304 305 307 307 307 308 310 312 312 312 312 310 308 306 305 302 298 293 290 290 290 291 292 296 300 302 300 296 292 287 281 276 271 266 258 247 237 234 233 229 223 216 210 204 198 198 202 205 205 205 215 239 253 262 268 268 269 271 269 263
314 313 312 312 314 315 315 316 317 318 317 311 305 301 302 306 309 309 307 303 299 297 297 297 298 298 299 300 302 303 305 307 309 311 310 307 307 308 308 307 308 307 305 300 296 295 295 295 295 295 298 300 299 294 289 283 278 275 270 262 252 241 229 223 221 217 211 205 199 196 196 199 203 203 203 203 213 236 255 265 268 268 269 270 265 254
313 311 310 310 310 310 310 311 312 313 313 310 306 302 300 300 302 303 303 298 293 290 290 291 291 292 294 295 298 300 302 303 306 307 305 304 305 305 305 304 305 305 303 300 298 296 296 298 300 301 300 300 298 295 288 281 276 272 265 256 246 235 222 214 209 205 201 196 192 193 197 201 203 201 199 202 217 242 259 268 268 266 266 264 255 239
Height
1404 1402 1401 1399 1397 1395 1393 1390 1387 1385 1383 1380 1378 1376 1375 1373 1372 1370 1369 1368 1367 1366 1365 1365 1363 1362 1361 1360 1360 1361 1361 1362 1363 1363 1364 1365 1366 1367 1369 1371 1373 1375 1376 1378 1380 1382 1384 1385 1388 1390 1393 1395 1397 1399 1401 1404 1406 1409 1411 1415 1418 1421 1424 1426 1429 1431 1433 1435 1437 1439 1441 1444 1445 1447 1449 1451 1453 1455 1456 1457 1459 1460 1461 1462 1462 1463
1405 1404 1402 1400 1398 1396 1394 1392 1389 1387 1385 1382 1380 1379 1377 1375 1374 1372 1371 1369 1368 1367 1367 1366 1365 1364 1363 1363 1363 1364 1364 1364 1365 1366 1367 1368 1369 1370 1371 1372 1374 1375 1377 1378 1380 1383 1385 1387 1389 1391 1394 1396 1398 1400 1402 1405 1407 1409 1412 1415 1419 1422 1425 1427 1429 1430 1433 1435 1437 1439 1441 1444 1445 1447 1450 1452 1453 1455 1456 1458 1459 1460 1461 1461 1462 1462
1406 1404 1403 1401 1400 1397 1395 1393 1391 1389 1387 1385 1383 1381 1379 1377 1375 1374 1372 1371 1370 1369 1369 1368 1367 1366 1365 1365 1366 1366 1367 1367 1367 1368 1369 1370 1371 1372 1374 1375 1376 1378 1379 1381 1383 1385 1388 1390 1391 1393 1395 1397 1399 1401 1403 1405 1407 1410 1413 1416 1420 1423 1425 1426 1428 1430 1432 1435 1437 1440 1441 1444 1446 1448 1450 1452 1453 1455 1456 1458 1459 1460 1461 1461 1461 1462
1407 1405 1404 1402 1401 1399 1397 1395 1393 1391 1389 1387 1385 1383 1381 1379 1377 1375 1374 1373 1373 1372 1370 1369 1368 1367 1367 1367 1368 1369 1370 1370 1370 1370 1371 1371 1372 1374 1375 1377 1378 1380 1382 1384 1386 1388 1390 1391 1393 1395 1396 1398 1400 1402 1404 1406 1408 1411 1414 1417 1420 1423 1425 1426 1428 1430 1433 1435 1437 1440 1442 1444 1446 1448 1450 1451 1453 1455 1456 1458 1459 1460 1460 1460 1461 1461
1408 1406 1405 1403 1402 1400 1399 1397 1395 1393 1391 1389 1387 1385 1383 1381 1379 1377 1376 1375 1375 1373 1372 1371 1370 1369 1369 1370 1370 1371 1372 1372 1372 1372 1372 1373 1374 1376 1377 1379 1380 1382 1384 1385 1387 1390 1391 1393 1394 1396 1398 1399 1400 1402 1404 1406 1409 1411 1414 1417 1420 1423 1425 1427 1429 1431 1433 1435 1437 1440 1442 1444 1445 1447 1450 1451 1453 1455 1457 1458 1459 1459 1460 1460 1460 1461
1409 1408 1406 1405 1403 1402 1400 1399 1397 1395 1393 1390 1389 1387 1385 1383 1382 1380 1379 1377 1376 1375 1374 1373 1372 1371 1371 1372 1372 1373 1374 1374 1374 1374 1375 1375 1376 1378 1379 1380 1382 1383 1385 1386 1388 1390 1392 1394 1395 1397 1398 1399 1400 1402 1403 1406 1409 1412 1415 1418 1421 1423 1425 1427 1429 1431 1433 1435 1437 1440 1441 1444 1445 1448 1450 1452 1454 1455 1457 1458 1458 1458 1459 1459 1460 1460
1410 1409 1408 1406 1405 1403 1402 1400 1398 1396 1394 1392 1390 1389 1387 1385 1384 1382 1381 1379 1378 1376 1375 1375 1374 1374 1373 1374 1374 1375 1375 1376 1376 1376 1377 1377 1378 1380 1381 1383 1385 1386 1387 1388 1390 1392 1393 1395 1397 1399 1400 1400 1401 1402 1404 1407 1410 1413 1416 1419 1421 1423 1425 1427 1430 1432 1434 1436 1438 1440 1442 1444 1446 1448 1450 1452 1454 1455 1456 1457 1457 1457 1458 1459 1459 1460
1411 1410 1409 1407 1406 1404 1403 1401 1399 1397 1395 1394 1392 1390 1389 1387 1386 1385 1383 1382 1380 1379 1377 1376 1376 1375 1375 1376 1376 1376 1377 1377 1378 1378 1379 1379 1380 1381 1382 1385 1387 1389 1390 1391 1392 1393 1395 1396 1398 1400 1402 1403 1404 1404 1406 1409 1412 1415 1417 1419 1421 1423 1425 1428 1430 1433 1435 1436 1438 1440 1442 1445 1447 1449 1451 1452 1454 1455 1455 1456 1456 1456 1457 1458 1459 1460
1412 1411 1410 1408 1407 1405 1404 1403 1401 1399 1397 1395 1394 1392 1390 1389 1388 1387 1385 1384 1382 1381 1380 1379 1378 1377 1377 1378 1378 1378 1379 1379 1379 1380 1380 1381 1382 1382 1383 1385 1387 1390 1393 1394 1395 1396 1397 1398 1400 1402 1404 1405 1407 1408 1409 1411 1413 1415 1417 1419 1420 1423 1425 1428 1431 1433 1435 1436 1439 1441 1443 1445 1447 1449 1451 1452 1453 1454 1455 1455 1455 1455 1456 1457 1458 1460
1414 1412 1411 1410 1408 1407 1405 1404 1403 1401 1400 1398 1396 1395 1393 1391 1390 1389 1387 1386 1385 1384 1383 1382 1381 1380 1380 1380 1380 1380 1380 1381 1381 1382 1382 1383 1384 1384 1385 1385 1387 1389 1391 1394 1396 1398 1400 1401 1402 1403 1405 1407 1408 1409 1410 1411 1413 1415 1417 1419 1421 1424 1426 1429 1431 1433 1435 1437 1439 1441 1444 1446 1448 1449 1450 1451 1452 1454 1455 1455 1455 1456 1456 1457 1458 1459
1415 1414 1412 1411 1410 1409 1407 1406 1405 1403 1401 1400 1399 1397 1395 1394 1392 1391 1390 1389 1388 1387 1386 1385 1384 1383 1382 1381 1381 1381 1382 1382 1383 1384 1385 1385 1385 1386 1386 1387 1388 1389 1390 1392 1394 1396 1399 1401 1403 1405 1406 1408 1409 1410 1411 1412 1413 1415 1417 1420 1422 1425 1427 1430 1431 1433 1435 1438 1440 1442 1444 1446 1448 1449 1450 1450 1451 1452 1454 1455 1456 1456 1457 1457 1458 1459
1416 1415 1414 1413 1411 1410 1409 1408 1406 1405 1403 1401 1399 1398 1397 1396 1395 1395 1393 1392 1391 1390 1390 1389 1388 1387 1385 1385 1384 1384 1384 1384 1385 1385 1386 1387 1388 1388 1388 1389 1389 1390 1391 1392 1394 1395 1397 1399 1401 1404 1406 1408 1409 1410 1412 1413 1414 1415 1417 1419 1422 1425 1428 1430 1431 1433 1436 1438 1440 1443 1444 1446 1447 1449 1449 1450 1451 1452 1454 1455 1456 1456 1457 1457 1458 1459
1417 1416 1415 1414 1413 1411 1410 1409 1407 1406 1404 1402 1401 1400 1400 1399 1399 1398 1396 1395 1395 1394 1393 1392 1391 1390 1389 1388 1387 1387 1386 1386 1387 1387 1387 1388 1389 1390 1391 1391 1391 1392 1393 1394 1395 1397 1398 1399 1400 1402 1405 1406 1408 1410 1411 1413 1415 1416 1417 1420 1423 1425 1428 1430 1431 1434 1436 1439 1441 1442 1444 1445 1447 1448 1449 1450 1451 1452 1454 1455 1456 1456 1457 1457 1457 1458
1418 1417 1416 1415 1414 1413 1412 1410 1409 1408 1407 1406 1405 1404 1404 1403 1401 1400 1399 1398 1398 1397 1396 1395 1394 1393 1392 1390 1390 1390 1389 1389 1389 1389 1389 1389 1390 1392 1393 1393 1394 1394 1395 1395 1397 1398 1400 1400 1401 1403 1405 1406 1407 1408 1410 1412 1414 1416 1418 1420 1423 1425 1427 1430 1432 1434 1437 1439 1440 1442 1444 1445 1447 1448 1449 1450 1451 1453 1454 1455 1455 1456 1456 1457 1457 1457
1419 1418 1417 1416 1415 1415 1414 1413 1412 1411 1410 1409 1408 1407 1406 1405 1404 1403 1402 1401 1400 1400 1399 1398 1397 1396 1395 1394 1393 1392 1392 1392 1392 1391 1391 1391 1392 1393 1394 1395 1396 1397 1397 1398 1399 1400 1402 1402 1403 1404 1405 1406 1407 1408 1410 1412 1415 1417 1419 1421 1423 1425 1428 1430 1432 1435 1437 1439 1440 1442 1443 1445 1446 1448 1449 1450 1451 1453 1454 1454 1455 1455 1455 1456 1456 1456
1420 1420 1419 1418 1417 1417 1416 1415 1414 1414 1413 1412 1411 1410 1408 1407 1406 1406 1405 1404 1403 1402 1401 1400 1399 1399 1398 1398 1397 1396 1395 1395 1395 1395 1394 1395 1395 1395 1396 1397 1397 1399 1400 1400 1402 1404 1405 1405 1406 1407 1409 1410 1411 1412 1414 1416 1418 1420 1421 1423 1425 1427 1429 1431 1433 1435 1437 1439 1440 1442 1444 1445 1447 1448 1449 1450 1452 1452 1453 1453 1454 1454 1454 1455 1455 1456
1422 1421 1420 1420 1419 1419 1418 1417 1416 1416 1415 1414 1413 1412 1410 1410 1409 1408 1408 1407 1406 1405 1404 1403 1402 1401 1402 1402 1401 1400 1399 1399 1399 1399 1398 1399 1399 1400 1400 1400 1400 1400 1402 1404 1405 1408 1410 1411 1413 1415 1417 1419 1420 1421 1421 1423 1423 1424 1425 1426 1427 1429 1431 1433 1435 1436 1438 1439 1441 1443 1444 1445 1447 1448 1449 1450 1451 1452 1453 1453 1453 1453 1454 1454 1455 1455
1423 1422 1422 1421 1420 1420 1420 1419 1418 1417 1416 1416 1415 1414 1413 1412 1411 1411 1410 1409 1409 1408 1407 1405 1405 1405 1405 1405 1405 1404 1403 1402 1402 1402 1402 1403 1404 1405 1405 1405 1405 1405 1406 1408 1410 1413 1415 1416 1418 1420 1423 1425 1426 1427 1427 1427 1428 1428 1428 1429 1430 1431 1433 1434 1436 1438 1439 1440 1442 1443 1444 1445 1447 1448 1449 1450 1451 1452 1452 1452 1453 1453 1454 1454 1454 1454
1425 1424 1423 1423 1422 1422 1421 1420 1420 1419 1418 1417 1417 1416 1415 1414 1414 1413 1412 1411 1411 1410 1410 1409 1408 1408 1408 1409 1409 1409 1407 1407 1406 1405 1405 1406 1407 1408 1409 1410 1410 1411 1412 1413 1415 1417 1418 1419 1421 1423 1425 1426 1428 1429 1430 1431 1431 1432 1432 1433 1433 1434 1435 1436 1438 1439 1440 1441 1442 1443 1444 1445 1447 1448 1449 1450 1450 1451 1451 1452 1452 1453 1453 1453 1454 1454
1426 1425 1425 1425 1424 1423 1423 1422 1421 1421 1420 1419 1419 1418 1417 1416 1415 1415 1414 1414 1413 1412 1412 1411 1411 1411 1412 1412 1413 1413 1412 1411 1410 1408 1408 1408 1409 1410 1412 1413 1414 1415 1416 1417 1419 1420 1421 1422 1424 1425 1427 1428 1430 1431 1432 1433 1433 1434 1435 1436 1437 1437 1438 1439 1440 1440 1441 1442 1443 1444 1445 1446 1447 1448 1449 1450 1450 1450 1451 1451 1452 1452 1453 1453 1453 1453
1428 1427 1427 1426 1426 1425 1425 1424 1423 1423 1422 1421 1420 1420 1419 1418 1417 1417 1416 1416 1415 1415 1414 1414 1414 1414 1415 1415 1415 1415 1415 1415 1414 1412 1411 1410 1411 1413 1414 1415 1416 1417 1418 1420 1421 1423 1424 1425 1426 1428 1429 1430 1431 1432 1433 1434 1435 1435 1436 1437 1438 1439 1440 1440 1441 1441 1442 1442 1443 1444 1445 1446 1447 1448 1448 1449 1449 1450 1450 1451 1451 1452 1452 1452 1452 1453
1429 1429 1429 1428 1428 1427 1426 1426 1425 1425 1424 1423 1422 1421 1421 1420 1419 1419 1418 1418 1417 1416 1416 1416 1416 1416 1416 1416 1416 1417 1417 1417 1417 1416 1415 1414 1414 1415 1416 1417 1418 1418 1419 1421 1422 1424 1424 1425 1426 1428 1429 1430 1431 1432 1433 1435 1435 1436 1437 1438 1438 1439 1439 1440 1441 1441 1442 1442 1443 1444 1445 1446 1447 1448 1448 1449 1449 1450 1450 1450 1451 1451 1451 1451 1452 1453
1431 1430 1430 1430 1429 1429 1428 1428 1427 1426 1425 1425 1424 1423 1423 1422 1421 1421 1420 1420 1419 1419 1419 1418 1418 1418 1418 1418 1418 1418 1418 1418 1419 1419 1419 1417 1418 1419 1419 1420 1420 1420 1421 1421 1422 1423 1424 1424 1425 1426 1428 1430 1431 1432 1433 1434 1435 1436 1437 1438 1439 1439 1440 1440 1441 1441 1442 1442 1443 1444 1445 1446 1447 1448 1448 1449 1449 1449 1450 1450 1450 1451 1451 1451 1452 1453
1432 1432 1432 1431 1431 1430 1430 1429 1429 1428 1427 1426 1425 1425 1425 1424 1423 1423 1422 1422 1421 1421 1420 1420 1420 1420 1420 1420 1420 1419 1419 1419 1420 1421 1421 1421 1421 1422 1423 1423 1423 1423 1424 1424 1424 1424 1424 1424 1425 1426 1428 1430 1431 1433 1434 1435 1435 1436 1437 1438 1439 1440 1440 1441 1442 1442 1443 1443 1444 1444 1445 1446 1447 1448 1448 1448 1449 1449 1450 1450 1450 1451 1451 1451 1452 1452
1434 1433 1433 1433 1432 1432 1431 1431 1430 1430 1429 1428 1427 1427 1426 1425 1425 1424 1424 1423 1423 1423 1423 1422 1422 1422 1422 1421 1421 1421 1421 1421 1421 1422 1423 1423 1423 1424 1425 1425 1426 1426 1426 1427 1427 1427 1427 1427 1428 1429 1430 1431 1432 1434 1435 1435 1436 1437 1438 1439 1440 1440 1441 1442 1443 1443 1443 1444 1444 1444 1445 1446 1447 1447 1448 1448 1449 1449 1450 1450 1450 1451 1451 1451 1452 1452
1435 1435 1435 1434 1434 1433 1433 1432 1432 1431 1430 1430 1429 1428 1428 1427 1426 1426 1426 1425 1425 1425 1425 1424 1424 1424 1424 1423 1423 1423 1423 1423 1424 1424 1425 1425 1425 1426 1427 1427 1428 1428 1428 1429 1430 1431 1431 1431 1431 1432 1433 1433 1434 1435 1435 1436 1437 1438 1439 1440 1440 1441 1442 1442 1443 1443 1444 1444 1444 1445 1445 1446 1447 1448 1448 1449 1449 1450 1450 1450 1450 1451 1451 1451 1451 1451
1436 1436 1436 1435 1435 1435 1434 1434 1433 1432 1432 1431 1430 1430 1429 1429 1429 1428 1428 1427 1427 1427 1426 1425 1425 1425 1425 1425 1425 1425 1425 1425 1426 1426 1427 1428 1428 1428 1429 1429 1429 1430 1430 1431 1432 1433 1433 1434 1434 1435 1435 1435 1436 1437 1437 1438 1439 1440 1440 1441 1441 1442 1442 1443 1443 1443 1444 1444 1444 1445 1446 1447 1447 1448 1448 1449 1449 1450 1450 1450 1450 1451 1451 1451 1451 1451
1438 1437 1437 1436 1436 1436 1435 1435 1434 1434 1433 1433 1432 1432 1431 1431 1430 1430 1429 1429 1429 1428 1428 1427 1427 1426 1426 1426 1427 1427 1427 1427 1428 1429 1430 1430 1430 1430 1430 1431 1431 1431 1432 1433 1433 1434 1435 1435 1436 1437 1437 1438 1438 1439 1439 1440 1440 1441 1441 1441 1442 1442 1443 1443 1444 1444 1444 1445 1445 1446 1446 1447 1447 1448 1448 1449 1450 1450 1450 1450 1451 1451 1451 1451 1451 1450
1439 1439 1438 1438 1437 1437 1436 1436 1435 1435 1435 1434 1434 1433 1433 1432 1432 1431 1431 1431 1430 1430 1429 1429 1428 1428 1428 1428 1429 1429 1429 1430 1430 1430 1431 1431 1431 1431 1432 1432 1433 1433 1434 1434 1435 1436 1436 1437 1438 1438 1439 1439 1439 1440 1440 1441 1441 1441 1442 1442 1443 1443 1444 1444 1444 1445 1445 1445 1446 1446 1447 1447 1448 1448 1449 1449 1450 1450 1450 1451 1451 1451 1451 1451 1450 1450
1440 1440 1439 1439 1438 1438 1437 1437 1436 1436 1436 1435 1435 1435 1434 1434 1433 1433 1432 1432 1432 1431 1431 1430 1430 1430 1430 1430 1430 1430 1430 1431 1432 1432 1433 1433 1433 1433 1433 1434 1435 1435 1435 1436 1436 1437 1437 1438 1439 1439 1440 1440 1440 1440 1441 1441 1442 1442 1442 1443 1443 1444 1444 1445 1445 1445 1446 1446 1447 1447 1447 1448 1448 1449 1449 1450 1450 1450 1450 1451 1451 1451 1450 1450 1450 1450
1440 1440 1440 1440 1439 1439 1439 1438 1438 1437 1437 1437 1436 1436 1435 1435 1435 1434 1434 1434 1433 1433 1432 1432 1432 1432 1432 1431 1431 1432 1432 1433 1433 1434 1434 1434 1434 1435 1435 1435 1436 1436 1437 1437 1437 1438 1438 1439 1440 1440 1440 1440 1441 1441 1442 1442 1442 1443 1443 1444 1444 1445 1445 1445 1446 1446 1446 1447 1447 1447 1448 1448 1448 1449 1449 1450 1450 1450 1450 1450 1450 1450 1450 1450 1450 1450
1440 1440 1440 1440 1440 1440 1439 1439 1439 1439 1438 1438 1437 1437 1436 1436 1436 1435 1435 1435 1435 1434 1434 1434 1434 1434 1434 1433 1433 1433 1434 1434 1435 1435 1435 1435 1435 1435 1436 1436 1437 1437 1437 1438 1438 1438 1439 1440 1440 1440 1441 1441 1442 1442 1443 1443 1443 1444 1444 1445 1445 1445 1445 1446 1446 1446 1447 1447 1448 1448 1448 1448 1449 1449 1449 1450 1450 1450 1450 1450 1450 1450 1450 1450 1450 1450
1440 1440 1440 1440 1440 1440 1440 1440 1440 1440 1439 1439 1439 1438 1438 1437 1437 1437 1436 1436 1436 1436 1435 1435 1435 1435 1435 1435 1435 1435 1435 1435 1436 1436 1436 1436 1436 1437 1437 1437 1437 1438 1438 1438 1439 1439 1439 1440 1440 1441 1441 1442 1442 1443 1443 1444 1444 1444 1445 1445 1445 1445 1446 1446 1446 1447 1447 1447 1448 1448 1448 1449 1449 1449 1449 1450 1450 1450 1450 1450 1450 1450 1450 1450 1450 1450
1440 1440 1440 1440 1440 1440 1440 1440 1440 1440 1440 1440 1440 1439 1439 1439 1438 1438 1438 1437 1437 1437 1437 1437 1436 1436 1436 1436 1436 1436 1436 1436 1437 1437 1437 1437 1437 1437 1438 1438 1438 1438 1439 1439 1439 1440 1440 1440 1440 1441 1441 1442 1443 1443 1443 1444 1444 1445 1445 1445 1445 1446 1446 1446 1447 1447 1447 1447 1448 1448 1448 1449 1449 1449 1449 1449 1450 1450 1450 1450 1450 1450 1450 1450 1450 1450
1441 1440 1440 1440 1440 1440 1440 1440 1440 1440 1440 1440 1440 1440 1440 1440 1440 1439 1439 1439 1438 1438 1438 1438 1438 1438 1438 1437 1437 1437 1437 1438 1438 1438 1438 1438 1438 1438 1438 1439 1439 1439 1439 1440 1440 1440 1440 1441 1441 1441 1442 1442 1443 1443 1444 1444 1444 1445 1445 1445 1445 1446 1446 1446 1447 1447 1447 1447 1448 1448 1448 1449 1449 1449 1449 1449 1449 1449 1449 1449 1449 1449 1449 1449 1449 1449
1442 1441 1441 1440 1440 1440 1440 1440 1440 1440 1440 1440 1440 1440 1440 1440 1440 1440 1440 1440 1440 1439 1439 1439 1439 1439 1439 1439 1439 1439 1439 1439 1439 1439 1439 1439 1439 1439 1439 1439 1440 1440 1440 1440 1440 1441 1441 1441 1442 1442 1442 1442 1443 1443 1443 1444 1444 1445 1445 1445 1445 1446 1446 1446 1447 1447 1447 1447 1447 1448 1448 1448 1449 1449 1449 1449 1449 1449 1449 1449 1449 1449 1449 1449 1449 1449
1442 1442 1441 1441 1441 1440 1440 1440 1440 1440 1440 1440 1440 1440 1440 1441 1441 1441 1441 1441 1441 1440 1440 1440 1440 1440 1440 1440 1440 1440 1440 1440 1440 1440 1440 1440 1440 1440 1440 1440 1440 1440 1441 1441 1441 1441 1442 1442 1442 1442 1443 1443 1443 1443 1443 1444 1444 1444 1445 1445 1445 1445 1446 1446 1446 1447 1447 1447 1447 1447 1448 1448 1448 1448 1449 1449 1449 1449 1449 1449 1449 1449 1449 1449 1449 1449
1443 1442 1442 1442 1441 1441 1441 1440 1440 1440 1440 1440 1440 1440 1440 1440 1441 1441 1442 1442 1442 1441 1441 1441 1441 1441 1441 1441 1441 1441 1441 1441 1441 1440 1440 1440 1440 1440 1441 1441 1441 1441 1441 1441 1442 1442 1442 1442 1442 1443 1443 1443 1443 1443 1444 1444 1444 1444 1444 1445 1445 1445 1446 1446 1446 1446 1447 1447 1447 1447 1447 1448 1448 1448 1448 1449 1449 1449 1449 1449 1449 1449 1449 1449 1449 1449
1443 1443 1443 1442 1442 1442 1441 1441 1441 1440 1440 1440 1440 1440 1440 1440 1440 1441 1441 1442 1442 1442 1442 1442 1442 1442 1442 1441 1441 1441 1441 1441 1441 1441 1441 1441 1441 1441 1441 1441 1441 1441 1442 1442 1442 1442 1442 1442 1442 1443 1443 1443 1443 1443 1443 1444 1444 1444 1444 1445 1445 1445 1445 1445 1446 1446 1446 1446 1447 1447 1447 1447 1448 1448 1448 1448 1449 1449 1448 1448 1449 1449 1449 1449 1449 1449
1444 1443 1443 1443 1443 1442 1442 1442 1441 1441 1441 1440 1440 1440 1440 1440 1440 1441 1441 1441 1442 1442 1443 1443 1443 1443 1442 1442 1442 1442 1442 1442 1442 1442 1442 1442 1442 1442 1442 1442 1442 1442 1442 1442 1442 1442 1442 1442 1442 1442 1443 1443 1443 1443 1443 1443 1444 1444 1444 1444 1444 1445 1445 1445 1445 1446 1446 1446 1446 1446 1447 1447 1447 1448 1448 1448 1448 1448 1448 1448 1449 1449 1449 1449 1449 1449
1444 1444 1444 1443 1443 1443 1443 1442 1442 1442 1441 1441 1441 1441 1440 1440 1441 1441 1441 1441 1442 1442 1442 1442 1443 1443 1443 1443 1443 1443 1442 1442 1442 1442 1442 1442 1442 1442 1442 1442 1442 1442 1442 1442 1442 1442 1442 1442 1442 1442 1442 1442 1443 1443 1443 1443 1443 1444 1444 1444 1444 1444 1445 1445 1445 1445 1445 1446 1446 1446 1446 1447 1447 1447 1448 1448 1448 1448 1448 1448 1449 1449 1449 1449 1449 1449
1445 1445 1444 1444 1444 1443 1443 1443 1442 1442 1442 1442 1441 1441 1441 1441 1441 1441 1441 1441 1441 1442 1442 1442 1442 1443 1443 1443 1443 1443 1443 1443 1443 1442 1442 1442 1442 1442 1442 1442 1442 1442 1442 1442 1442 1442 1442 1442 1442 1442 1442 1442 1442 1442 1443 1443 1443 1443 1444 1444 1444 1444 1444 1445 1445 1445 1445 1445 1446 1446 1446 1446 1447 1447 1447 1448 1448 1448 1448 1448 1449 1449 1449 1449 1449 1449
1445 1445 1445 1445 1444 1444 1444 1443 1443 1443 1442 1442 1442 1442 1442 1442 1442 1442 1442 1441 1441 1441 1441 1441 1442 1442 1443 1443 1443 1443 1443 1443 1443 1443 1443 1443 1443 1442 1442 1442 1442 1442 1442 1442 1442 1442 1442 1442 1442 1442 1442 1442 1442 1442 1442 1443 1443 1443 1443 1443 1444 1444 1444 1444 1444 1445 1445 1445 1446 1446 1446 1446 1447 1447 1447 1447 1447 1448 1448 1448 1448 1449 1449 1449 1449 1449
1445 1445 1445 1445 1445 1444 1444 1444 1443 1443 1443 1442 1442 1442 1442 1442 1442 1442 1442 1442 1442 1441 1441 1441 1441 1441 1442 1442 1443 1443 1443 1443 1443 1443 1443 1443 1443 1443 1443 1443 1442 1442 1442 1442 1442 1442 1442 1442 1442 1442 1442 1442 1442 1442 1442 1442 1443 1443 1443 1443 1443 1444 1444 1444 1444 1445 1445 1445 1445 1446 1446 1446 1446 1447 1447 1447 1447 1448 1448 1448 1448 1449 1449 1449 1449 1449
1446 1445 1445 1445 1445 1444 1444 1444 1444 1443 1443 1443 1443 1443 1443 1443 1442 1442 1442 1442 1442 1442 1442 1441 1441 1441 1441 1442 1442 1442 1442 1443 1443 1443 1443 1443 1443 1443 1443 1443 1443 1442 1442 1442 1442 1442 1442 1442 1442 1442 1442 1442 1442 1442 1442 1442 1442 1442 1443 1443 1443 1443 1444 1444 1444 1445 1445 1445 1445 1445 1446 1446 1447 1447 1447 1447 1447 1448 1448 1448 1448 1449 1449 1449 1449 1449
1446 1445 1445 1445 1445 1444 1444 1444 1444 1444 1443 1443 1443 1443 1443 1443 1443 1442 1442 1442 1442 1442 1442 1442 1442 1442 1441 1441 1441 1442 1442 1442 1442 1442 1443 1443 1443 1443 1443 1443 1443 1442 1442 1442 1442 1442 1442 1442 1442 1442 1442 1442 1442 1442 1442 1442 1442 1442 1442 1443 1443 1443 1443 1443 1444 1444 1445 1445 1445 1445 1446 1446 1447 1447 1447 1447 1447 1448 1448 1448 1448 1449 1449 1449 1449 1449
1446 1445 1445 1445 1445 1445 1444 1444 1444 1444 1443 1443 1443 1443 1443 1443 1443 1442 1442 1442 1442 1442 1442 1442 1442 1442 1441 1441 1441 1441 1441 1442 1442 1442 1442 1442 1442 1442 1442 1442 1442 1442 1442 1442 1442 1442 1442 1442 1441 1441 1441 1441 1441 1441 1442 1442 1442 1442 1442 1442 1443 1443 1443 1443 1443 1444 1444 1445 1445 1445 1446 1446 1447 1447 1447 1447 1447 1448 1448 1448 1448 1448 1449 1449 1448 1448
1446 1445 1445 1445 1445 1445 1444 1444 1444 1444 1443 1443 1443 1443 1443 1443 1443 1442 1442 1442 1442 1442 1442 1442 1442 1441 1441 1441 1441 1441 1441 1441 1441 1441 1441 1442 1442 1442 1442 1442 1442 1442 1442 1442 1442 1441 1441 1441 1441 1441 1441 1441 1441 1441 1441 1441 1442 1442 1442 1442 1442 1443 1443 1443 1443 1444 1444 1445 1445 1445 1446 1446 1446 1447 1447 1447 1447 1448 1448 1448 1448 1448 1449 1448 1448 1448
1445 1445 1445 1445 1445 1444 1444 1444 1444 1444 1443 1443 1443 1443 1442 1442 1442 1442 1442 1442 1442 1442 1442 1442 1442 1441 1441 1441 1441 1441 1441 1441 1441 1441 1441 1441 1441 1442 1441 1441 1441 1441 1441 1441 1441 1441 1441 1441 1441 1441 1441 1441 1441 1441 1441 1441 1441 1441 1442 1442 1442 1442 1442 1443 1443 1444 1444 1445 1445 1445 1446 1446 1446 1446 1447 1447 1447 1448 1448 1448 1448 1448 1448 1448 1448 1448
1445 1445 1445 1444 1444 1444 1444 1444 1443 1443 1443 1443 1443 1442 1442 1442 1442 1442 1442 1441 1441 1441 1441 1441 1441 1441 1441 1441 1441 1441 1441 1441 1441 1441 1441 1441 1441 1441 1441 1441 1441 1441 1441 1441 1441 1441 1441 1440 1440 1441 1441 1441 1441 1441 1441 1441 1441 1441 1441 1441 1442 1442 1442 1442 1443 1443 1444 1445 1445 1445 1446 1446 1446 1446 1447 1447 1447 1448 1448 1448 1448 1448 1448 1448 1448 1448
1444 1444 1444 1444 1444 1443 1443 1443 1443 1443 1443 1443 1442 1442 1442 1442 1441 1441 1441 1441 1441 1441 1441 1441 1441 1441 1441 1441 1441 1441 1441 1441 1441 1441 1441 1441 1441 1441 1441 1441 1441 1441 1441 1441 1441 1441 1440 1440 1440 1440 1440 1440 1440 1440 1440 1440 1441 1441 1441 1441 1441 1442 1442 1442 1443 1443 1444 1445 1445 1445 1446 1446 1446 1447 1447 1447 1447 1447 1448 1448 1448 1448 1448 1448 1448 1448